Regional Weather Roundup
Issued by NWS Kansas City/Pleasant Hill, MO

Home | Current Version | Previous Version | Text Only | Print | Product List | Glossary On
Versions: 1 2 3 4 5 6 7 8 9 10 11 12 13 14 15 16 17 18 19 20 21 22 23 24 25 26 27 28 29 30 31 32 33 34 35 36 37 38 39 40 41 42 43 44 45 46 47 48 49 50
000
ASUS43 KEAX 250704
RWREAX

WEATHER ROUNDUP FOR EASTERN KANSAS AND NORTHWEST MISSOURI
NATIONAL WEATHER SERVICE KANSAS CITY/PLEASANT HILL MO
200 AM CDT FRI APR 25 2014

KSZ040-057-103>105-MOZ028-029-037-043-250800-
...KANSAS CITY METROPOLITAN AREA...

CITY           SKY/WX    TMP DP  RH WIND       PRES   REMARKS
K.C. INTL      CLEAR     48  43  82 SW7       29.87R
K.C. DOWNTOWN  CLEAR     50  45  83 SW5       29.87S
LEES SUMMIT    CLEAR     48  44  86 SW5       29.88R
OLATHE - IXD   CLEAR     48  42  80 SW5       29.89R
OLATHE - OJC   CLEAR     48  42  80 W5        29.88R
LAWRENCE       CLEAR     41  39  93 CALM      29.88S

$$

MOZ001>008-011>017-020>025-030>033-038>040-044>046-053-054-250800-
...NORTHERN AND CENTRAL MISSOURI...

CITY           SKY/WX    TMP DP  RH WIND       PRES   REMARKS
ST. JOSEPH     CLEAR     43  42  97 S3        29.86S FOG
MOSBY          FAIR      45  45 100 CALM      29.87R FOG
WHITEMAN AFB   NOT AVBL
CLINTON        CLEAR     48  46  93 W6        29.88S
SEDALIA        CLEAR     51  46  83 W9        29.86R
WARSAW         NOT AVBL
MARSHALL         N/A     54  48  82 W5        29.86R
CHILLICOTHE      N/A     50  44  80 NW3       29.85R
MOBERLY        CLOUDY    52  45  76 W10       29.81R
KIRKSVILLE     CLOUDY    48  44  86 NW10      29.80R

$$

MOZ041-047>049-056>058-063>065-088>090-097-250800-
...EASTERN AND SOUTHERN MISSOURI...

CITY           SKY/WX    TMP DP  RH WIND       PRES   REMARKS
ST. LOUIS INTL DRIZZLE   57  52  83 W15G23    29.71R
SPIRIT OF STL  CLOUDY   N/A N/A N/A W14G21    29.73R
COLUMBIA       CLOUDY    50  46  86 NW10      29.82R
JEFFERSON CITY CLOUDY    51  47  86 W8        29.82R
MEXICO         CLOUDY    48  48 100 W8        29.80R
HANNIBAL       CLOUDY    50  45  81 NW10      29.76S
ROLLA          CLOUDY    50  47  89 W12       29.80R
LEBANON        PTCLDY    50  45  81 W9        29.86R
OSAGE BEACH    MOCLDY    52  45  76 W6        29.86R
SPRINGFIELD    CLEAR     50  44  80 NW7       29.88S
BRANSON        CLEAR     52  41  66 NW7       29.90R
NEVADA         CLEAR     48  43  81 W6        29.91S
JOPLIN         CLEAR     46  43  89 CALM      29.91F
WEST PLAINS    PTCLDY    53  46  77 NW16G28   29.83R

$$

IAZ060-094-KSZ022-034>040-054-083-096-NEZ052-066-093-250800-
...KANSAS...SOUTHEAST NEBRASKA AND IOWA...

CITY           SKY/WX    TMP DP  RH WIND       PRES   REMARKS
TOPEKA         CLEAR     46  42  86 CALM      29.88S
MANHATTAN      CLEAR     39  39 100 CALM      29.87S
EMPORIA        CLEAR     47  40  76 S10       29.88F
CHANUTE        CLEAR     44  40  85 SW6       29.91S
WICHITA        CLEAR     45  36  70 S7        29.91S
OMAHA          CLEAR     47  42  83 S6        29.82S
LINCOLN        CLEAR     48  36  63 CALM      29.85R
FALLS CITY     CLEAR     46  43  89 CALM      29.84S
LAMONI         CLEAR     46  43  89 W6        29.83R
DES MOINES     CLEAR     45  41  86 W6        29.81S

$$




USA.gov is the U.S. government's official web portal to all federal, state and local government web resources and services.